GORIZONT 25 1 21922U 92017A 12030.38858488 -.00000354 00000-0 10000-3 0 5873 2 21922 13.2293 32.2077 0029251 331.6641 28.2166 0.99852128 72505 GORIZONT 26 1 22041U 92043A 12033.34767215 -.00000309 00000-0 10000-3 0 2104 2 22041 13.1400 33.6074 0029086 127.2678 233.0510 0.99245304 71403 GORIZONT 27 1 22245U 92082A 12034.21334468 .00000054 00000-0 10000-3 0 7404 2 22245 13.0572 34.3507 0012598 262.7815 97.1315 1.00207165 74574 GORIZONT 28 1 22880U 93069A 12034.19614273 .00000023 00000-0 10000-3 0 5861 2 22880 12.6702 37.5820 0034683 23.2329 336.9853 0.99655388 66844 GORIZONT 29 1 22907U 93072A 12033.63918305 .00000134 00000-0 10000-3 0 9526 2 22907 12.6365 37.5537 0011351 242.0563 117.8911 1.00131039 66646 GORIZONT 30 1 23108U 94030A 12033.45279667 -.00000342 00000-0 10000-3 0 7638 2 23108 12.5107 38.6723 0001452 8.2309 351.8390 1.00376322 64862 GORIZONT 31 1 23775U 96005A 12033.36016721 -.00000314 00000-0 10000-3 0 2232 2 23775 11.5853 44.1860 0019481 85.2744 275.0103 0.99899417 58620 GORIZONT 32 1 23880U 96034A 12034.04063285 .00000136 00000-0 10000-3 0 9377 2 23880 11.4539 45.0465 0008572 246.9529 256.1842 1.00156314 57471 GORIZONT 33 1 26372U 00029A 12033.26819051 .00000073 00000-0 10000-3 0 9109 2 26372 8.8469 53.9020 0003597 336.6049 23.4465 1.00238870 42796